| time (UTC) | temp C | wind direction | speed KPH | gust KPH | rain 1hr cm | rain 24hr cm | rain mn cm | humidity % | barometer mb |
| 20260504044306 | 15 | 276 | 4.8 | 12.9 | 0.00 | 0.00 | 0.00 | 76 | 1013.8 |
| 20260504043759 | 15 | 255 | 4.8 | 16.1 | 0.00 | 0.00 | 0.00 | 76 | 1013.8 |
| 20260504043252 | 15 | 200 | 9.7 | 16.1 | 0.00 | 0.00 | 0.00 | 76 | 1013.8 |
| 20260504042744 | 15 | 227 | 12.9 | 16.1 | 0.00 | 0.00 | 0.00 | 76 | 1013.4 |
| 20260504042237 | 15 | 242 | 9.7 | 12.9 | 0.00 | 0.00 | 0.00 | 76 | 1013.8 |
| 20260504041730 | 15 | 257 | 4.8 | 12.9 | 0.00 | 0.00 | 0.00 | 77 | 1013.4 |
| 20260504041223 | 15 | 228 | 8.0 | 12.9 | 0.00 | 0.00 | 0.00 | 77 | 1013.4 |
| 20260504035700 | 15 | 198 | 6.4 | 14.5 | 0.00 | 0.00 | 0.00 | 78 | 1013.4 |
| 20260504035153 | 15 | 227 | 4.8 | 14.5 | 0.00 | 0.00 | 0.00 | 79 | 1013.1 |
| 20260504034140 | 15 | 200 | 9.7 | 14.5 | 0.00 | 0.00 | 0.00 | 79 | 1013.1 |
| 20260504033631 | 15 | 219 | 9.7 | 16.1 | 0.00 | 0.00 | 0.00 | 79 | 1013.1 |
| 20260504033124 | 15 | 228 | 11.3 | 16.1 | 0.00 | 0.00 | 0.00 | 79 | 1013.1 |
| 20260504032109 | 15 | 251 | 6.4 | 11.3 | 0.00 | 0.00 | 0.00 | 79 | 1013.1 |
| 20260504031055 | 15 | 238 | 8.0 | 9.7 | 0.00 | 0.00 | 0.00 | 79 | 1012.8 |
| 20260504030548 | 15 | 207 | 6.4 | 12.9 | 0.00 | 0.00 | 0.00 | 78 | 1012.8 |
| 20260504030041 | 15 | 255 | 3.2 | 12.9 | 0.00 | 0.00 | 0.00 | 78 | 1012.8 |
| 20260504025534 | 15 | 218 | 8.0 | 12.9 | 0.00 | 0.00 | 0.00 | 78 | 1012.8 |
| 20260504025025 | 15 | 249 | 3.2 | 16.1 | 0.00 | 0.00 | 0.00 | 78 | 1012.4 |
| 20260504024518 | 15 | 269 | 6.4 | 17.7 | 0.00 | 0.00 | 0.00 | 78 | 1012.8 |
| 20260504024011 | 15 | 228 | 8.0 | 17.7 | 0.00 | 0.00 | 0.00 | 78 | 1012.4 |
| 20260504023504 | 15 | 250 | 8.0 | 25.7 | 0.00 | 0.00 | 0.00 | 77 | 1012.8 |
| 20260504022957 | 15 | 247 | 14.5 | 25.7 | 0.00 | 0.00 | 0.00 | 77 | 1012.4 |
| 20260504022450 | 15 | 260 | 8.0 | 22.5 | 0.00 | 0.00 | 0.00 | 76 | 1012.4 |
| 20260504021942 | 15 | 248 | 12.9 | 22.5 | 0.00 | 0.00 | 0.00 | 76 | 1012.4 |
| 20260504021435 | 15 | 223 | 12.9 | 20.9 | 0.00 | 0.00 | 0.00 | 76 | 1012.4 |
| 20260504020928 | 15 | 215 | 17.7 | 20.9 | 0.00 | 0.00 | 0.00 | 75 | 1012.4 |
| 20260504020420 | 15 | 250 | 9.7 | 17.7 | 0.00 | 0.00 | 0.00 | 74 | 1012.4 |
| 20260504015912 | 15 | 254 | 6.4 | 17.7 | 0.00 | 0.00 | 0.00 | 75 | 1012.4 |
| 20260504015405 | 15 | 211 | 14.5 | 17.7 | 0.00 | 0.00 | 0.00 | 74 | 1012.4 |
| 20260504014858 | 15 | 181 | 9.7 | 17.7 | 0.00 | 0.00 | 0.00 | 75 | 1012.4 |
| 20260504014351 | 15 | 243 | 9.7 | 25.7 | 0.00 | 0.00 | 0.00 | 75 | 1012.4 |
| 20260504013844 | 15 | 203 | 12.9 | 25.7 | 0.00 | 0.00 | 0.00 | 76 | 1012.1 |
| 20260504013336 | 15 | 216 | 17.7 | 24.1 | 0.00 | 0.00 | 0.00 | 76 | 1012.4 |
| 20260504012829 | 15 | 309 | 9.7 | 24.1 | 0.00 | 0.00 | 0.00 | 75 | 1012.1 |
| 20260504012321 | 15 | 223 | 16.1 | 24.1 | 0.00 | 0.00 | 0.00 | 75 | 1012.4 |
| 20260504011814 | 15 | 254 | 12.9 | 22.5 | 0.00 | 0.00 | 0.00 | 74 | 1012.4 |
| 20260504011307 | 15 | 235 | 19.3 | 22.5 | 0.00 | 0.00 | 0.00 | 72 | 1012.4 |
| 20260504010800 | 15 | 235 | 11.3 | 20.9 | 0.00 | 0.00 | 0.00 | 73 | 1012.1 |
| 20260504010253 | 15 | 253 | 14.5 | 20.9 | 0.00 | 0.00 | 0.00 | 73 | 1012.1 |
| 20260504005238 | 15 | 244 | 14.5 | 20.9 | 0.00 | 0.00 | 0.00 | 72 | 1012.1 |
| 20260504004731 | 16 | 246 | 14.5 | 20.9 | 0.00 | 0.00 | 0.00 | 70 | 1012.1 |
| 20260504004224 | 16 | 280 | 6.4 | 22.5 | 0.00 | 0.00 | 0.00 | 71 | 1012.1 |
| 20260504003717 | 16 | 244 | 14.5 | 22.5 | 0.00 | 0.00 | 0.00 | 70 | 1012.1 |
| 20260504003209 | 16 | 231 | 9.7 | 25.7 | 0.00 | 0.00 | 0.00 | 70 | 1012.1 |
| 20260504002702 | 16 | 241 | 11.3 | 25.7 | 0.00 | 0.00 | 0.00 | 69 | 1011.8 |
| 20260504002155 | 16 | 245 | 9.7 | 17.7 | 0.00 | 0.00 | 0.00 | 67 | 1012.1 |
| 20260504001648 | 16 | 249 | 9.7 | 20.9 | 0.00 | 0.00 | 0.00 | 68 | 1012.1 |
| 20260504000633 | 16 | 264 | 14.5 | 20.9 | 0.00 | 0.00 | 0.00 | 69 | 1012.1 |
| 20260504000125 | 16 | 264 | 9.7 | 17.7 | 0.00 | 0.00 | 0.00 | 71 | 1011.8 |
| 20260503235618 | 15 | 215 | 11.3 | 25.7 | 0.00 | 0.00 | 0.00 | 72 | 1011.8 |
| 20260503235111 | 15 | 231 | 19.3 | 25.7 | 0.00 | 0.00 | 0.00 | 72 | 1011.8 |
| 20260503234604 | 16 | 237 | 14.5 | 25.7 | 0.00 | 0.00 | 0.00 | 71 | 1012.1 |
| 20260503234057 | 16 | 236 | 14.5 | 20.9 | 0.00 | 0.00 | 0.00 | 73 | 1011.8 |
| 20260503233549 | 16 | 262 | 11.3 | 22.5 | 0.00 | 0.00 | 0.00 | 74 | 1011.8 |
| 20260503233041 | 16 | 218 | 16.1 | 25.7 | 0.00 | 0.00 | 0.00 | 73 | 1011.8 |
| 20260503232535 | 16 | 267 | 16.1 | 25.7 | 0.00 | 0.00 | 0.00 | 73 | 1012.1 |
| 20260503231519 | 16 | 283 | 11.3 | 17.7 | 0.00 | 0.00 | 0.00 | 70 | 1012.1 |
| 20260503231012 | 16 | 270 | 14.5 | 22.5 | 0.00 | 0.00 | 0.00 | 71 | 1012.1 |
| 20260503230505 | 16 | 273 | 9.7 | 22.5 | 0.00 | 0.00 | 0.00 | 70 | 1012.1 |
| 20260503225959 | 16 | 258 | 11.3 | 25.7 | 0.00 | 0.00 | 0.00 | 69 | 1012.4 |
| 20260503225450 | 17 | 232 | 20.9 | 25.7 | 0.00 | 0.00 | 0.00 | 67 | 1012.1 |
| 20260503224943 | 17 | 222 | 9.7 | 20.9 | 0.00 | 0.00 | 0.00 | 67 | 1012.1 |
| 20260503223929 | 17 | 229 | 14.5 | 22.5 | 0.00 | 0.00 | 0.00 | 66 | 1012.4 |
| 20260503223422 | 17 | 224 | 11.3 | 22.5 | 0.00 | 0.00 | 0.00 | 65 | 1012.4 |
| 20260503222914 | 17 | 236 | 17.7 | 22.5 | 0.00 | 0.00 | 0.00 | 64 | 1012.4 |
| 20260503222407 | 17 | 235 | 9.7 | 22.5 | 0.00 | 0.00 | 0.00 | 66 | 1012.4 |
| 20260503221900 | 17 | 236 | 6.4 | 20.9 | 0.00 | 0.00 | 0.00 | 68 | 1012.4 |
| 20260503221353 | 17 | 249 | 17.7 | 24.1 | 0.00 | 0.00 | 0.00 | 66 | 1012.8 |
| 20260503220846 | 16 | 230 | 8.0 | 24.1 | 0.00 | 0.00 | 0.00 | 67 | 1012.8 |
| 20260503220338 | 16 | 232 | 8.0 | 22.5 | 0.00 | 0.00 | 0.00 | 65 | 1012.8 |
| 20260503215830 | 16 | 238 | 14.5 | 24.1 | 0.00 | 0.00 | 0.00 | 66 | 1012.8 |
| 20260503215323 | 17 | 207 | 12.9 | 24.1 | 0.00 | 0.00 | 0.00 | 66 | 1012.8 |
| 20260503214309 | 17 | 213 | 17.7 | 24.1 | 0.00 | 0.00 | 0.00 | 64 | 1012.8 |
| 20260503213801 | 17 | 201 | 19.3 | 24.1 | 0.00 | 0.00 | 0.00 | 61 | 1013.1 |
| 20260503213254 | 17 | 256 | 6.4 | 24.1 | 0.00 | 0.00 | 0.00 | 63 | 1012.8 |
| 20260503212747 | 17 | 266 | 11.3 | 24.1 | 0.00 | 0.00 | 0.00 | 61 | 1012.8 |
| 20260503212240 | 17 | 214 | 16.1 | 20.9 | 0.00 | 0.00 | 0.00 | 63 | 1012.8 |
| 20260503211225 | 17 | 287 | 14.5 | 25.7 | 0.00 | 0.00 | 0.00 | 61 | 1012.8 |
| 20260503210718 | 17 | 229 | 19.3 | 24.1 | 0.00 | 0.00 | 0.00 | 61 | 1013.1 |
| 20260503210210 | 17 | 216 | 14.5 | 24.1 | 0.00 | 0.00 | 0.00 | 64 | 1013.1 |
| 20260503205703 | 16 | 64 | 6.4 | 25.7 | 0.00 | 0.00 | 0.00 | 64 | 1012.8 |
| 20260503204649 | 16 | 245 | 14.5 | 24.1 | 0.00 | 0.00 | 0.00 | 64 | 1012.8 |
| 20260503204141 | 17 | 252 | 11.3 | 24.1 | 0.00 | 0.00 | 0.00 | 61 | 1013.1 |
| 20260503203127 | 17 | 252 | 14.5 | 20.9 | 0.00 | 0.00 | 0.00 | 64 | 1012.8 |
| 20260503202619 | 17 | 286 | 9.7 | 20.9 | 0.00 | 0.00 | 0.00 | 63 | 1012.8 |
| 20260503202112 | 17 | 250 | 17.7 | 20.9 | 0.00 | 0.00 | 0.00 | 62 | 1013.1 |
| 20260503201604 | 17 | 232 | 12.9 | 22.5 | 0.00 | 0.00 | 0.00 | 63 | 1013.1 |
| 20260503201057 | 17 | 190 | 8.0 | 22.5 | 0.00 | 0.00 | 0.00 | 62 | 1013.1 |
| 20260503200043 | 17 | 233 | 9.7 | 22.5 | 0.00 | 0.00 | 0.00 | 62 | 1013.1 |
| 20260503195535 | 17 | 261 | 8.0 | 17.7 | 0.00 | 0.00 | 0.00 | 60 | 1013.1 |
| 20260503193506 | 17 | 215 | 9.7 | 16.1 | 0.00 | 0.00 | 0.00 | 63 | 1013.4 |
| 20260503192959 | 17 | 187 | 9.7 | 20.9 | 0.00 | 0.00 | 0.00 | 61 | 1013.4 |
| 20260503192452 | 17 | 253 | 12.9 | 22.5 | 0.00 | 0.00 | 0.00 | 63 | 1013.1 |
| 20260503191438 | 17 | 267 | 8.0 | 22.5 | 0.00 | 0.00 | 0.00 | 62 | 1013.4 |
| 20260503190930 | 17 | 206 | 8.0 | 20.9 | 0.00 | 0.00 | 0.00 | 61 | 1013.4 |
| 20260503190423 | 17 | 233 | 9.7 | 20.9 | 0.00 | 0.00 | 0.00 | 61 | 1013.4 |
| 20260503185408 | 17 | 195 | 6.4 | 22.5 | 0.00 | 0.00 | 0.00 | 63 | 1013.4 |
| 20260503184902 | 17 | 230 | 19.3 | 22.5 | 0.00 | 0.00 | 0.00 | 62 | 1013.4 |
| 20260503184354 | 17 | 216 | 6.4 | 17.7 | 0.00 | 0.00 | 0.00 | 63 | 1013.4 |
| 20260503183847 | 17 | 243 | 6.4 | 16.1 | 0.00 | 0.00 | 0.00 | 62 | 1013.4 |
| 20260503183340 | 17 | 204 | 4.8 | 12.9 | 0.00 | 0.00 | 0.00 | 61 | 1013.4 |
| 20260503182833 | 17 | 181 | 8.0 | 12.9 | 0.00 | 0.00 | 0.00 | 63 | 1013.4 |
| 20260503182325 | 17 | 267 | 0.0 | 14.5 | 0.00 | 0.00 | 0.00 | 65 | 1013.4 |
| 20260503181818 | 17 | 264 | 4.8 | 14.5 | 0.00 | 0.00 | 0.00 | 63 | 1013.4 |
| 20260503181310 | 16 | 263 | 1.6 | 14.5 | 0.00 | 0.00 | 0.00 | 66 | 1013.4 |
| 20260503180803 | 16 | 249 | 8.0 | 14.5 | 0.00 | 0.00 | 0.00 | 66 | 1013.4 |
| 20260503180256 | 16 | 311 | 6.4 | 12.9 | 0.00 | 0.00 | 0.00 | 67 | 1013.4 |
| 20260503175241 | 16 | 292 | 6.4 | 16.1 | 0.00 | 0.00 | 0.00 | 69 | 1013.8 |
| 20260503174734 | 16 | 241 | 11.3 | 16.1 | 0.00 | 0.00 | 0.00 | 70 | 1013.8 |
| 20260503174226 | 16 | 250 | 11.3 | 16.1 | 0.00 | 0.00 | 0.00 | 70 | 1013.8 |
| 20260503173719 | 16 | 226 | 9.7 | 16.1 | 0.00 | 0.00 | 0.00 | 71 | 1013.8 |
| 20260503172705 | 15 | 219 | 11.3 | 16.1 | 0.00 | 0.00 | 0.00 | 73 | 1013.8 |
| 20260503172158 | 15 | 253 | 12.9 | 16.1 | 0.00 | 0.00 | 0.00 | 73 | 1013.8 |
| 20260503170636 | 15 | 240 | 8.0 | 14.5 | 0.00 | 0.00 | 0.00 | 74 | 1013.4 |
| 20260503170129 | 15 | 261 | 9.7 | 14.5 | 0.00 | 0.00 | 0.00 | 74 | 1013.4 |
| 20260503150849 | 15 | 226 | 6.4 | 11.3 | 0.00 | 0.00 | 0.00 | 78 | 1012.8 |
| 20260503150341 | 15 | 275 | 3.2 | 11.3 | 0.00 | 0.00 | 0.00 | 79 | 1012.8 |
| 20260503140214 | 14 | 232 | 1.6 | 3.2 | 0.00 | 0.00 | 0.00 | 83 | 1011.8 |
| 20260503131101 | 14 | 323 | 0.0 | 3.2 | 0.00 | 0.00 | 0.00 | 86 | 1011.4 |
| 20260503130554 | 14 | 307 | 1.6 | 4.8 | 0.00 | 0.00 | 0.00 | 86 | 1011.8 |
| 20260503110807 | 15 | 267 | 0.0 | 1.6 | 0.00 | 0.00 | 0.00 | 80 | 1011.8 |
| 20260503110300 | 15 | 267 | 0.0 | 3.2 | 0.00 | 0.00 | 0.00 | 80 | 1011.8 |
| 20260503100133 | 15 | 279 | 0.0 | 4.8 | 0.00 | 0.00 | 0.00 | 83 | 1011.8 |
| 20260503081400 | 15 | 224 | 3.2 | 6.4 | 0.00 | 0.00 | 0.00 | 85 | 1012.4 |
| 20260503080853 | 14 | 239 | 4.8 | 6.4 | 0.00 | 0.00 | 0.00 | 86 | 1012.1 |
| 20260503072756 | 14 | 229 | 8.0 | 11.3 | 0.00 | 0.00 | 0.00 | 89 | 1012.1 |
| 20260503072248 | 14 | 239 | 6.4 | 9.7 | 0.00 | 0.00 | 0.00 | 90 | 1012.1 |
| 20260503071741 | 14 | 187 | 6.4 | 9.7 | 0.00 | 0.00 | 0.00 | 90 | 1012.1 |
| 20260503071234 | 14 | 213 | 4.8 | 9.7 | 0.00 | 0.00 | 0.00 | 90 | 1011.8 |
| 20260503070726 | 14 | 217 | 4.8 | 6.4 | 0.00 | 0.00 | 0.00 | 90 | 1011.8 |
| 20260503070219 | 14 | 202 | 3.2 | 9.7 | 0.00 | 0.00 | 0.00 | 90 | 1011.8 |
| 20260503055037 | 14 | 241 | 8.0 | 11.3 | 0.00 | 0.00 | 0.00 | 89 | 1011.8 |
| 20260503054530 | 14 | 200 | 3.2 | 12.9 | 0.00 | 0.00 | 0.00 | 89 | 1011.8 |
| 20260503054022 | 14 | 226 | 6.4 | 12.9 | 0.00 | 0.00 | 0.00 | 89 | 1011.8 |
| 20260503053515 | 15 | 256 | 3.2 | 12.9 | 0.00 | 0.00 | 0.00 | 89 | 1012.1 |
| 20260503053009 | 15 | 249 | 4.8 | 14.5 | 0.00 | 0.00 | 0.00 | 89 | 1012.1 |
| 20260503052501 | 15 | 205 | 8.0 | 14.5 | 0.00 | 0.00 | 0.00 | 90 | 1012.1 |
| 20260503051954 | 14 | 234 | 6.4 | 14.5 | 0.00 | 0.00 | 0.00 | 90 | 1012.1 |
| 20260503050939 | 15 | 209 | 6.4 | 11.3 | 0.00 | 0.00 | 0.00 | 90 | 1012.1 |
| 20260503050431 | 15 | 227 | 6.4 | 11.3 | 0.00 | 0.00 | 0.00 | 90 | 1012.1 |
| 20260503045417 | 15 | 245 | 6.4 | 14.5 | 0.00 | 0.00 | 0.00 | 91 | 1011.8 |
| 20260503044911 | 15 | 226 | 4.8 | 14.5 | 0.00 | 0.00 | 0.00 | 91 | 1011.8 |